Back to catalog

COSMOS 1579 COOLANT

LostLEO
NORAD 27638·DEBRIS·🇷🇺 Russia

Launched Jun 29, 1984 from Baikonur Cosmodrome

Loading…

Next Passes (next 24 hours)

TLE

StaleSource: Space-Track

Epoch: Oct 30, 2022, 19:40 UTC

1 27638U 84069Y   22303.81961437  .00000170  00000-0  20541-3 0  9995
2 27638  65.0481  97.6995 0030509 110.8530 249.5806 13.91155968 25955

Track COSMOS 1579 COOLANT in real time with AllMySat

Download on the App Store